Time,TemperatureF,DewpointF,PressureIn,WindDirection,WindDirectionDegrees,WindSpeedMPH,WindSpeedGustMPH,Humidity,HourlyPrecipIn,Conditions,Clouds,dailyrainin,SoftwareType,DateUTC
2013-03-01 00:06:00,15.6,3.0,30.35,SSW,211,1.0,3.0,58,0.00,,,0.00,weatherlink.com 1.10,2013-03-01 06:06:00,
2013-03-01 00:21:00,15.2,3.0,30.35,SSE,148,1.0,2.0,58,0.00,,,0.00,weatherlink.com 1.10,2013-03-01 06:21:00,
2013-03-01 00:36:00,14.9,2.0,30.35,South,190,0.0,3.0,57,0.00,,,0.00,weatherlink.com 1.10,2013-03-01 06:36:00,
2013-03-01 00:51:00,14.4,2.0,30.36,South,171,0.0,2.0,59,0.00,,,0.00,weatherlink.com 1.10,2013-03-01 06:51:00,
2013-03-01 01:06:00,14.2,2.0,30.36,SE,146,0.0,3.0,59,0.00,,,0.00,weatherlink.com 1.10,2013-03-01 07:06:00,
2013-03-01 01:21:00,13.9,2.0,30.36,South,184,0.0,2.0,59,0.00,,,0.00,weatherlink.com 1.10,2013-03-01 07:21:00,
2013-03-01 01:36:00,13.4,2.0,30.36,South,181,0.0,2.0,60,0.00,,,0.00,weatherlink.com 1.10,2013-03-01 07:36:00,
2013-03-01 01:51:00,13.0,2.0,30.37,South,184,1.0,2.0,61,0.00,,,0.00,weatherlink.com 1.10,2013-03-01 07:51:00,
2013-03-01 02:06:00,12.7,2.0,30.37,SSW,204,1.0,2.0,62,0.00,,,0.00,weatherlink.com 1.10,2013-03-01 08:06:00,
2013-03-01 02:21:00,12.4,2.0,30.37,SW,218,1.0,3.0,62,0.00,,,0.00,weatherlink.com 1.10,2013-03-01 08:21:00,
2013-03-01 02:36:00,12.0,2.0,30.38,SSE,166,0.0,3.0,64,0.00,,,0.00,weatherlink.com 1.10,2013-03-01 08:36:00,
2013-03-01 02:51:00,11.5,2.0,30.38,SSW,207,1.0,3.0,65,0.00,,,0.00,weatherlink.com 1.10,2013-03-01 08:51:00,
2013-03-01 03:06:00,11.0,2.0,30.38,SSW,205,1.0,2.0,66,0.00,,,0.00,weatherlink.com 1.10,2013-03-01 09:06:00,
2013-03-01 03:21:00,10.7,2.0,30.38,SSE,149,0.0,3.0,67,0.00,,,0.00,weatherlink.com 1.10,2013-03-01 09:21:00,
2013-03-01 03:36:00,10.5,2.0,30.39,SSE,159,0.0,2.0,67,0.00,,,0.00,weatherlink.com 1.10,2013-03-01 09:36:00,
2013-03-01 03:52:00,9.9,1.0,30.39,South,188,0.0,1.0,67,0.00,,,0.00,weatherlink.com 1.10,2013-03-01 09:52:00,
2013-03-01 04:07:00,9.4,1.0,30.40,South,183,0.0,1.0,69,0.00,,,0.00,weatherlink.com 1.10,2013-03-01 10:07:00,
2013-03-01 04:22:00,8.9,1.0,30.40,South,191,0.0,2.0,69,0.00,,,0.00,weatherlink.com 1.10,2013-03-01 10:22:00,
2013-03-01 04:37:00,8.6,1.0,30.41,South,169,0.0,3.0,70,0.00,,,0.00,weatherlink.com 1.10,2013-03-01 10:37:00,
2013-03-01 04:52:00,8.5,1.0,30.41,SSW,198,0.0,3.0,70,0.00,,,0.00,weatherlink.com 1.10,2013-03-01 10:52:00,
2013-03-01 05:07:00,8.3,0.0,30.41,SSE,155,0.0,2.0,70,0.00,,,0.00,weatherlink.com 1.10,2013-03-01 11:07:00,
2013-03-01 05:22:00,7.8,1.0,30.42,SE,141,0.0,1.0,72,0.00,,,0.00,weatherlink.com 1.10,2013-03-01 11:22:00,
2013-03-01 05:37:00,7.5,0.0,30.43,SE,140,0.0,2.0,71,0.00,,,0.00,weatherlink.com 1.10,2013-03-01 11:37:00,
2013-03-01 05:52:00,7.0,-1.0,30.43,South,180,0.0,1.0,71,0.00,,,0.00,weatherlink.com 1.10,2013-03-01 11:52:00,
2013-03-01 06:07:00,6.8,-1.0,30.43,SSW,205,0.0,3.0,71,0.00,,,0.00,weatherlink.com 1.10,2013-03-01 12:07:00,
2013-03-01 06:22:00,6.6,-1.0,30.44,South,186,0.0,2.0,71,0.00,,,0.00,weatherlink.com 1.10,2013-03-01 12:22:00,
2013-03-01 06:37:00,6.5,-1.0,30.44,South,174,0.0,1.0,72,0.00,,,0.00,weatherlink.com 1.10,2013-03-01 12:37:00,
2013-03-01 06:52:00,6.5,0.0,30.45,SE,132,0.0,2.0,73,0.00,,,0.00,weatherlink.com 1.10,2013-03-01 12:52:00,
2013-03-01 07:07:00,6.2,-1.0,30.45,SE,138,0.0,2.0,72,0.00,,,0.00,weatherlink.com 1.10,2013-03-01 13:07:00,
2013-03-01 07:22:00,6.1,-1.0,30.45,SSE,151,0.0,2.0,72,0.00,,,0.00,weatherlink.com 1.10,2013-03-01 13:22:00,
2013-03-01 07:37:00,6.1,-1.0,30.46,South,176,0.0,2.0,71,0.00,,,0.00,weatherlink.com 1.10,2013-03-01 13:37:00,
2013-03-01 07:52:00,6.6,-1.0,30.46,SSE,153,0.0,2.0,71,0.00,,,0.00,weatherlink.com 1.10,2013-03-01 13:52:00,
2013-03-01 08:08:00,7.2,0.0,30.46,SSW,198,1.0,2.0,71,0.00,,,0.00,weatherlink.com 1.10,2013-03-01 14:08:00,
2013-03-01 08:23:00,7.8,0.0,30.47,WSW,240,0.0,3.0,69,0.00,,,0.00,weatherlink.com 1.10,2013-03-01 14:23:00,
2013-03-01 08:38:00,8.3,0.0,30.47,SW,214,1.0,1.0,68,0.00,,,0.00,weatherlink.com 1.10,2013-03-01 14:38:00,
2013-03-01 08:53:00,8.8,0.0,30.47,SW,214,0.0,2.0,67,0.00,,,0.00,weatherlink.com 1.10,2013-03-01 14:53:00,
2013-03-01 09:08:00,9.3,0.0,30.47,South,179,1.0,2.0,65,0.00,,,0.00,weatherlink.com 1.10,2013-03-01 15:08:00,
2013-03-01 09:23:00,10.1,0.0,30.48,South,188,2.0,2.0,65,0.00,,,0.00,weatherlink.com 1.10,2013-03-01 15:23:00,
2013-03-01 09:38:00,10.8,0.0,30.48,ESE,108,0.0,2.0,63,0.00,,,0.00,weatherlink.com 1.10,2013-03-01 15:38:00,
2013-03-01 09:53:00,12.1,1.0,30.48,SSW,208,0.0,2.0,61,0.00,,,0.00,weatherlink.com 1.10,2013-03-01 15:53:00,
2013-03-01 10:08:00,13.0,1.0,30.48,South,170,0.0,2.0,60,0.00,,,0.00,weatherlink.com 1.10,2013-03-01 16:08:00,
2013-03-01 10:23:00,13.7,2.0,30.48,South,184,0.0,2.0,60,0.00,,,0.00,weatherlink.com 1.10,2013-03-01 16:23:00,
2013-03-01 10:38:00,14.9,1.0,30.48,SSE,161,0.0,2.0,55,0.00,,,0.00,weatherlink.com 1.10,2013-03-01 16:38:00,
2013-03-01 10:54:00,16.3,3.0,30.48,NNE,31,0.0,2.0,55,0.00,,,0.00,weatherlink.com 1.10,2013-03-01 16:54:00,
2013-03-01 11:09:00,17.2,1.0,30.48,South,188,1.0,3.0,50,0.00,,,0.00,weatherlink.com 1.10,2013-03-01 17:09:00,
2013-03-01 11:24:00,18.4,1.0,30.48,ESE,114,1.0,2.0,47,0.00,,,0.00,weatherlink.com 1.10,2013-03-01 17:24:00,
2013-03-01 11:39:00,18.3,1.0,30.48,ENE,75,2.0,3.0,46,0.00,,,0.00,weatherlink.com 1.10,2013-03-01 17:39:00,
2013-03-01 11:54:00,19.8,1.0,30.47,NW,321,1.0,4.0,44,0.00,,,0.00,weatherlink.com 1.10,2013-03-01 17:54:00,
2013-03-01 12:09:00,19.8,-1.0,30.47,SSW,200,1.0,3.0,40,0.00,,,0.00,weatherlink.com 1.10,2013-03-01 18:09:00,
2013-03-01 12:24:00,19.7,-2.0,30.46,SSE,161,0.0,3.0,39,0.00,,,0.00,weatherlink.com 1.10,2013-03-01 18:24:00,
2013-03-01 12:39:00,21.3,0.0,30.46,SE,141,0.0,3.0,39,0.00,,,0.00,weatherlink.com 1.10,2013-03-01 18:39:00,
2013-03-01 12:54:00,21.6,-1.0,30.45,South,181,1.0,3.0,38,0.00,,,0.00,weatherlink.com 1.10,2013-03-01 18:54:00,
2013-03-01 13:09:00,23.1,1.0,30.45,South,172,0.0,2.0,39,0.00,,,0.00,weatherlink.com 1.10,2013-03-01 19:09:00,
2013-03-01 13:24:00,23.4,0.0,30.45,SSE,156,1.0,2.0,36,0.00,,,0.00,weatherlink.com 1.10,2013-03-01 19:24:00,
2013-03-01 13:39:00,23.4,1.0,30.45,SE,142,1.0,3.0,37,0.00,,,0.00,weatherlink.com 1.10,2013-03-01 19:39:00,
2013-03-01 13:54:00,23.1,-2.0,30.45,South,177,0.0,2.0,34,0.00,,,0.00,weatherlink.com 1.10,2013-03-01 19:54:00,
2013-03-01 14:09:00,23.8,-1.0,30.44,South,176,0.0,3.0,34,0.00,,,0.00,weatherlink.com 1.10,2013-03-01 20:09:00,
2013-03-01 14:25:00,23.7,-2.0,30.44,SSW,197,1.0,2.0,32,0.00,,,0.00,weatherlink.com 1.10,2013-03-01 20:25:00,
2013-03-01 14:40:00,24.6,0.0,30.44,ESE,110,0.0,1.0,34,0.00,,,0.00,weatherlink.com 1.10,2013-03-01 20:40:00,
2013-03-01 14:55:00,25.5,1.0,30.43,NE,51,0.0,2.0,34,0.00,,,0.00,weatherlink.com 1.10,2013-03-01 20:55:00,
2013-03-01 15:10:00,24.9,-1.0,30.43,SE,132,0.0,2.0,33,0.00,,,0.00,weatherlink.com 1.10,2013-03-01 21:10:00,
2013-03-01 15:25:00,24.6,-1.0,30.43,SE,125,2.0,3.0,33,0.00,,,0.00,weatherlink.com 1.10,2013-03-01 21:25:00,
2013-03-01 15:40:00,24.8,1.0,30.44,SE,134,0.0,3.0,35,0.00,,,0.00,weatherlink.com 1.10,2013-03-01 21:40:00,
2013-03-01 15:55:00,25.0,-1.0,30.44,SE,124,1.0,4.0,33,0.00,,,0.00,weatherlink.com 1.10,2013-03-01 21:55:00,
2013-03-01 16:10:00,25.2,1.0,30.44,South,188,1.0,4.0,35,0.00,,,0.00,weatherlink.com 1.10,2013-03-01 22:10:00,
2013-03-01 16:25:00,24.6,0.0,30.45,SE,134,0.0,4.0,35,0.00,,,0.00,weatherlink.com 1.10,2013-03-01 22:25:00,
2013-03-01 16:40:00,23.6,1.0,30.44,South,175,0.0,5.0,37,0.00,,,0.00,weatherlink.com 1.10,2013-03-01 22:40:00,
2013-03-01 16:55:00,22.7,-1.0,30.44,ESE,115,1.0,2.0,36,0.00,,,0.00,weatherlink.com 1.10,2013-03-01 22:55:00,
2013-03-01 17:10:00,22.0,-1.0,30.44,SSW,200,2.0,3.0,36,0.00,,,0.00,weatherlink.com 1.10,2013-03-01 23:10:00,
2013-03-01 17:25:00,21.5,-1.0,30.44,South,170,0.0,3.0,38,0.00,,,0.00,weatherlink.com 1.10,2013-03-01 23:25:00,
2013-03-01 17:40:00,20.7,-1.0,30.45,SSE,158,0.0,2.0,38,0.00,,,0.00,weatherlink.com 1.10,2013-03-01 23:40:00,
2013-03-01 17:55:00,20.1,-2.0,30.45,SSE,158,0.0,1.0,38,0.00,,,0.00,weatherlink.com 1.10,2013-03-01 23:55:00,
2013-03-01 18:10:00,19.5,-2.0,30.45,SSE,163,0.0,1.0,39,0.00,,,0.00,weatherlink.com 1.10,2013-03-02 00:10:00,
2013-03-01 18:25:00,18.6,-2.0,30.45,SSE,162,0.0,1.0,41,0.00,,,0.00,weatherlink.com 1.10,2013-03-02 00:25:00,
2013-03-01 18:40:00,17.8,-2.0,30.45,South,173,1.0,1.0,42,0.00,,,0.00,weatherlink.com 1.10,2013-03-02 00:40:00,
2013-03-01 18:55:00,17.2,-2.0,30.45,SSE,163,0.0,1.0,42,0.00,,,0.00,weatherlink.com 1.10,2013-03-02 00:55:00,
2013-03-01 19:10:00,16.6,-1.0,30.45,SSE,163,0.0,1.0,45,0.00,,,0.00,weatherlink.com 1.10,2013-03-02 01:10:00,
2013-03-01 19:25:00,16.1,-3.0,30.45,South,181,0.0,1.0,43,0.00,,,0.00,weatherlink.com 1.10,2013-03-02 01:25:00,
2013-03-01 19:40:00,15.2,-3.0,30.45,SSE,152,0.0,1.0,45,0.00,,,0.00,weatherlink.com 1.10,2013-03-02 01:40:00,
2013-03-01 19:55:00,14.7,-3.0,30.46,SSE,152,0.0,0.0,46,0.00,,,0.00,weatherlink.com 1.10,2013-03-02 01:55:00,
2013-03-01 20:12:00,14.5,-3.0,30.45,SSE,152,0.0,1.0,47,0.00,,,0.00,weatherlink.com 1.10,2013-03-02 02:12:00,
2013-03-01 20:26:00,14.5,-2.0,30.45,SSE,152,0.0,0.0,49,0.00,,,0.00,weatherlink.com 1.10,2013-03-02 02:26:00,
2013-03-01 20:41:00,14.7,-2.0,30.45,SSE,152,0.0,0.0,47,0.00,,,0.00,weatherlink.com 1.10,2013-03-02 02:41:00,
2013-03-01 20:56:00,14.2,-2.0,30.45,SSE,152,0.0,1.0,48,0.00,,,0.00,weatherlink.com 1.10,2013-03-02 02:56:00,
2013-03-01 21:11:00,13.6,-3.0,30.45,SSE,152,0.0,1.0,48,0.00,,,0.00,weatherlink.com 1.10,2013-03-02 03:11:00,
2013-03-01 21:27:00,13.0,-3.0,30.45,SSE,156,0.0,1.0,49,0.00,,,0.00,weatherlink.com 1.10,2013-03-02 03:27:00,
2013-03-01 21:42:00,12.5,-3.0,30.44,SSE,156,0.0,0.0,50,0.00,,,0.00,weatherlink.com 1.10,2013-03-02 03:42:00,
2013-03-01 21:57:00,12.2,-3.0,30.44,SSE,156,0.0,0.0,50,0.00,,,0.00,weatherlink.com 1.10,2013-03-02 03:57:00,
2013-03-01 22:12:00,11.5,-3.0,30.44,SSE,156,0.0,1.0,52,0.00,,,0.00,weatherlink.com 1.10,2013-03-02 04:12:00,
2013-03-01 22:27:00,11.2,-3.0,30.44,SSE,156,0.0,0.0,53,0.00,,,0.00,weatherlink.com 1.10,2013-03-02 04:27:00,
2013-03-01 22:42:00,11.3,-3.0,30.43,SSE,157,0.0,1.0,53,0.00,,,0.00,weatherlink.com 1.10,2013-03-02 04:42:00,
2013-03-01 22:57:00,10.9,-3.0,30.43,SSE,156,0.0,1.0,53,0.00,,,0.00,weatherlink.com 1.10,2013-03-02 04:57:00,
2013-03-01 23:12:00,10.1,-4.0,30.43,SSE,157,0.0,1.0,54,0.00,,,0.00,weatherlink.com 1.10,2013-03-02 05:12:00,
2013-03-01 23:27:00,9.6,-4.0,30.43,SSE,156,0.0,0.0,54,0.00,,,0.00,weatherlink.com 1.10,2013-03-02 05:27:00,
2013-03-01 23:42:00,8.7,-4.0,30.43,SSE,157,0.0,0.0,56,0.00,,,0.00,weatherlink.com 1.10,2013-03-02 05:42:00,
2013-03-01 23:57:00,9.0,-4.0,30.43,SSE,156,0.0,0.0,55,0.00,,,0.00,weatherlink.com 1.10,2013-03-02 05:57:00,